Location: Fours
(44.3167°N, 6.7000°E)
Time: 06:29:00
(UTC+00:00)

Cosmos 1500 - Pass Details

Date: 30 November 2020
Orbit: 498 x 519 km, 82.5° (Epoch: 27 January)

Event Time Altitude Azimuth Distance (km) Brightness Sun altitude
Rises 17:17:51 0° 1° (N) 2,636 6.6 -14.3°
Reaches altitude 10° 17:20:10 10° 11° (NNE) 1,748 5.6 -14.7°
Maximum altitude 17:23:36 31° 75° (ENE) 924 3.9 -15.3°
Drops below altitude 10° 17:27:03 10° 139° (SE) 1,744 5.6 -15.9°
Sets 17:29:21 0° 150° (SSE) 2,628 6.6 -16.3°
